Flag Weather past 2 weeks in Pago Pago, American Samoa

Now
84 °F

Broken clouds.


Feels Like: 94 °F
Forecast: 80 / 89 °F
Wind: 8 mph from East

Location: Pago Pago / Int. Airp.

Current Time: Oct 31, 2014 at 8:22:13 AM

Latest Report: Oct 31, 2014 at 7:50 AM


Visibility: 12 mi

Pressure: 29.92 "Hg

Humidity: 78%

Dew point: 77 °F

Location of Pago PagoLocation

Historic Weather in Pago Pago — Graph

°F

Pago Pago temperature yesterday

Maximum temperature yesterday: 82 °F (at 2:55 PM)
Minimum temperature yesterday: 75 °F (at 6:50 AM)
Average temperature yesterday: 79 °F

Past Weeks' High & Low Weather Summary

 TemperatureHumidityPressure
High90 °F (Oct 24, 11:50 AM)98% (Oct 25, 5:50 AM)29.95 "Hg (Oct 25, 5:50 AM)
Low75 °F (Oct 30, 6:50 AM)61% (Oct 16, 1:54 PM)29.78 "Hg (Oct 24, 3:52 PM)
Average82 °F79%29.87 "Hg
* Reported Oct 16 6:51 AM — Oct 31 6:50 AM, Pago Pago, Weather by CustomWeather, © 2014

Note: Actual official high and low records may vary slightly from our data, if they occured in-between our weather recording intervals... More about our weather records

Advertising

Pago Pago weather history for previous 24 hours

 ConditionsComfort  
Time TempWeatherWind HumidityBarometerVisibility
6:50 AM
Oct 31
79 °FScattered clouds.2 mph91%29.90 "Hg12 mi
5:50 AM75 °FScattered clouds.2 mph96%29.89 "Hg11 mi
4:50 AM76 °FPassing clouds.2 mph95%29.88 "Hg10 mi
3:50 AM76 °FPassing clouds.3 mph94%29.86 "Hg10 mi
2:50 AM76 °FPassing clouds.3 mph94%29.85 "Hg10 mi
1:50 AM77 °FPassing clouds.No wind92%29.87 "Hg10 mi
12:50 AM78 °FPartly cloudy.No wind91%29.89 "Hg10 mi
11:50 PM
Oct 30
80 °FPartly cloudy.9 mph88%29.91 "Hg10 mi
10:55 PM80 °FPassing clouds.9 mph86%29.92 "Hg8 mi
9:51 PM81 °FPassing clouds.9 mph84%29.93 "Hg8 mi
8:51 PM81 °FPartly cloudy.8 mph84%29.91 "Hg8 mi
7:55 PM79 °FPartly cloudy.No wind87%29.90 "Hg8 mi
6:50 PM80 °FPartly cloudy.5 mph85%29.88 "Hg12 mi
5:55 PM81 °FCloudy.5 mph85%29.86 "Hg12 mi
4:51 PM81 °FMostly cloudy.8 mph85%29.85 "Hg12 mi
3:51 PM81 °FBroken clouds.3 mph80%29.85 "Hg12 mi
2:55 PM82 °FMore clouds than sun.6 mph79%29.85 "Hg12 mi
12:50 PM81 °FMore clouds than sun.6 mph82%29.88 "Hg12 mi
10:50 AM81 °FMore clouds than sun.7 mph85%29.93 "Hg12 mi
8:54 AM79 °FMore clouds than sun.No wind84%29.95 "Hg12 mi
Weather by CustomWeather, © 2014

See weather overviewHow to use our weather pages